FW8889 Weather Reports


time (UTC)temp
C
wind
direction
speed
KPH
gust
KPH
rain 1hr
cm
rain 24hr
cm
rain mn
cm
humidity
%
barometer
mb
20260508153054 14 219 1.6 9.7 0.00 0.00 0.00 38 1009.8
20260508151550 13 194 1.6 11.3 0.00 0.00 0.00 37 1009.8
20260508150051 13 200 1.6 14.5 0.00 0.00 0.00 38 1009.8
20260508144552 12 290 1.6 8.0 0.00 0.00 0.00 42 1009.8
20260508143055 12 278 1.6 9.7 0.00 0.00 0.00 42 1010.0
20260508141554 12 61 3.2 16.1 0.00 0.00 0.00 39 1010.1
20260508140044 12 163 0.0 9.7 0.00 0.00 0.00 43 1010.5
20260508134551 12 142 3.2 14.5 0.00 0.00 0.00 44 1010.6
20260508133048 11 126 1.6 9.7 0.00 0.00 0.00 45 1010.3
20260508131603 11 310 1.6 11.3 0.00 0.00 0.00 47 1010.4
20260508130048 10 352 1.6 6.4 0.00 0.00 0.00 48 1010.3
20260508124551 10 245 1.6 9.7 0.00 0.00 0.00 49 1010.3
20260508123106 9 163 1.6 17.7 0.00 0.00 0.00 54 1010.6
20260508121555 8 144 3.2 9.7 0.00 0.00 0.00 56 1010.7
20260508120106 8 11 0.0 6.4 0.00 0.00 0.00 58 1010.6
20260508114558 7 0 0.0 8.0 0.00 0.00 0.00 63 1010.5
20260508113100 5 57 0.0 3.2 0.00 0.00 0.00 70 1010.6
20260508111551 5 0 0.0 1.6 0.00 0.00 0.00 76 1010.5
20260508110100 3 0 0.0 0.0 0.00 0.00 0.00 80 1010.4
20260508104550 3 0 0.0 0.0 0.00 0.00 0.00 81 1010.3
20260508103102 3 0 0.0 0.0 0.00 0.00 0.00 81 1010.2
20260508101555 3 0 0.0 0.0 0.00 0.00 0.00 81 1009.9
20260508100050 3 0 0.0 0.0 0.00 0.00 0.00 81 1009.7
20260508094548 3 0 0.0 0.0 0.00 0.00 0.00 81 1009.8
20260508093051 3 0 0.0 0.0 0.00 0.00 0.00 81 1009.6
20260508091549 3 0 0.0 0.0 0.00 0.00 0.00 82 1009.5
20260508090058 2 0 0.0 1.6 0.00 0.00 0.00 82 1009.6
20260508084548 2 0 0.0 1.6 0.00 0.00 0.00 82 1009.4
20260508083052 3 0 0.0 0.0 0.00 0.00 0.00 82 1009.2
20260508081554 3 0 0.0 0.0 0.00 0.00 0.00 81 1009.1
20260508080051 3 0 0.0 0.0 0.00 0.00 0.00 80 1008.8
20260508074550 3 0 0.0 1.6 0.00 0.03 0.00 78 1008.6
20260508073049 3 0 0.0 0.0 0.00 0.03 0.00 78 1008.2
20260508071552 3 0 0.0 1.6 0.00 0.03 0.00 77 1008.4
20260508070056 4 0 0.0 0.0 0.00 0.03 0.00 77 1008.4
20260508064548 4 0 0.0 0.0 0.00 0.03 0.00 75 1008.3
20260508063100 4 0 0.0 1.6 0.00 0.03 0.00 75 1008.3
20260508061550 5 0 0.0 0.0 0.00 0.03 0.00 77 1008.3
20260508060049 5 0 0.0 1.6 0.00 0.03 0.00 78 1008.4
20260508054547 5 0 0.0 1.6 0.00 0.03 0.00 76 1008.6
20260508053102 5 0 0.0 0.0 0.00 0.03 0.00 72 1008.7
20260508051548 6 0 0.0 0.0 0.00 0.03 0.00 72 1008.8
20260508050050 6 0 0.0 1.6 0.00 0.03 0.00 68 1009.0
20260508044545 7 0 0.0 1.6 0.00 0.10 0.00 66 1009.2
20260508043058 7 0 0.0 0.0 0.00 0.10 0.00 65 1009.1
20260508041553 7 0 0.0 0.0 0.00 0.10 0.00 63 1009.1
20260508040052 8 0 0.0 0.0 0.00 0.10 0.00 62 1009.2
20260508034554 8 0 0.0 1.6 0.00 0.10 0.10 60 1009.2
20260508033052 8 0 0.0 1.6 0.00 0.10 0.10 59 1009.2
20260508031549 9 0 0.0 1.6 0.00 0.10 0.10 58 1008.9
20260508030053 9 0 0.0 6.4 0.00 0.10 0.10 59 1008.9
20260508024551 9 0 0.0 3.2 0.00 0.10 0.10 56 1008.8
20260508023044 10 0 0.0 3.2 0.00 0.10 0.10 53 1008.8
20260508021555 10 0 0.0 1.6 0.00 0.10 0.10 53 1008.8
20260508020050 10 0 0.0 0.0 0.00 0.10 0.10 50 1008.7
20260508014549 10 13 0.0 1.6 0.00 0.10 0.10 51 1008.6
20260508013056 11 0 0.0 3.2 0.00 0.10 0.10 47 1008.3
20260508011553 11 0 0.0 1.6 0.00 0.10 0.10 47 1008.2
20260508010043 11 0 0.0 1.6 0.00 0.10 0.10 44 1007.8
20260508004547 12 0 0.0 3.2 0.00 0.13 0.10 43 1007.6
20260508003048 12 0 0.0 3.2 0.00 0.13 0.10 41 1007.5
20260508001610 13 0 0.0 1.6 0.00 0.13 0.10 41 1007.4
20260508000048 13 9 1.6 8.0 0.00 0.13 0.10 36 1007.2
20260507234549 13 16 1.6 8.0 0.00 0.28 0.10 35 1007.1
20260507233050 14 0 0.0 11.3 0.00 0.28 0.10 38 1007.1
20260507231550 15 131 1.6 8.0 0.00 0.28 0.10 36 1006.8
20260507230053 15 90 1.6 6.4 0.00 0.28 0.10 35 1006.8
20260507224552 15 161 1.6 11.3 0.00 0.30 0.10 33 1006.6
20260507223050 15 188 3.2 11.3 0.00 0.30 0.10 33 1006.5
20260507221550 16 335 3.2 11.3 0.00 0.30 0.10 33 1006.4
20260507220053 16 0 3.2 12.9 0.00 0.30 0.10 34 1006.3
20260507214552 17 0 1.6 8.0 0.00 0.38 0.10 32 1006.1
20260507213050 17 38 3.2 9.7 0.00 0.38 0.10 33 1006.0
20260507211549 17 311 3.2 19.3 0.00 0.38 0.10 34 1005.9
20260507210053 17 127 1.6 8.0 0.00 0.38 0.10 32 1005.9
20260507204551 17 58 3.2 16.1 0.00 0.56 0.10 31 1006.0
20260507203051 17 244 3.2 12.9 0.00 0.56 0.10 33 1005.9
20260507201556 17 142 1.6 17.7 0.00 0.56 0.10 30 1005.7
20260507200047 17 46 1.6 12.9 0.00 0.56 0.10 29 1005.9
20260507194549 18 264 3.2 12.9 0.00 0.64 0.10 29 1006.1
20260507193053 18 296 3.2 14.5 0.00 0.64 0.10 32 1006.2
20260507191555 18 0 1.6 9.7 0.00 0.64 0.10 37 1006.2
20260507190055 18 142 1.6 20.9 0.00 0.64 0.10 35 1006.5
20260507184602 17 49 3.2 14.5 0.00 0.64 0.10 36 1006.5
20260507183051 17 0 3.2 12.9 0.00 0.64 0.10 30 1006.5
20260507181600 17 155 3.2 14.5 0.00 0.64 0.10 30 1006.7
20260507180050 17 325 3.2 11.3 0.00 0.64 0.10 34 1006.8
20260507174550 17 281 3.2 12.9 0.00 0.64 0.10 36 1006.7
20260507173050 17 147 1.6 11.3 0.00 0.64 0.10 40 1006.7
20260507171555 16 223 1.6 14.5 0.00 0.64 0.10 44 1006.9
20260507170052 16 239 4.8 12.9 0.00 0.64 0.10 44 1007.0
20260507164550 16 195 3.2 9.7 0.00 0.64 0.10 43 1007.1
20260507163048 16 310 3.2 11.3 0.00 0.64 0.10 50 1007.2
20260507161550 15 182 0.0 6.4 0.00 0.64 0.10 59 1007.4
20260507160047 14 162 3.2 8.0 0.00 0.64 0.10 55 1007.6
20260507154550 15 360 1.6 9.7 0.00 0.64 0.10 60 1007.7